sat.trackr.live / text

‹ back to catalog

ONEWEB-0136

NORAD 47282 · 2020-100AA

PAYLOAD ACTIVE UNKNOWN

§ Identity

Operator
Country
UK
Launch date
2020-12-18
Launch site
VOSTO
Launch vehicle
Mass (kg)
RCS (m²)

Purposes: comms

External: N2YO · Heavens-Above · Gunter

§ Orbital elements

Epoch: 2026-09-15T21:55:52.262112Z

Period
109.72 min
Inclination
87.8986°
Eccentricity
0.0001712
Mean motion
13.12441806 rev/d
Perigee alt
1,212.4 km
Apogee alt
1,215.0 km
Semi-major
7,591.9 km
B*
-3.6216e-4
RAAN
332.6401°
Arg perigee
90.9476°
Mean anomaly
269.1849°
Rev number
27,656

§ Raw data

ONEWEB-01361 47282U 20100AA  26258.91379933 -.00000118  00000+0 -36216-3 0  99952 47282  87.8986 332.6401 0001712  90.9476 269.1849 13.12441806276561

JSON: /api/v1/satellites/47282 · /tle

For live sub-satellite position, see the globe view (requires WebGL).

§ Visibility from observer

Set your observer location to see the next 7 days of passes ≥ 10°. The values pass through the URL so the page stays shareable.

No JS? Fill the form by hand. The geolocation button needs JavaScript.